Regional Weather Roundup
Issued by NWS

Home | Current Version | Previous Version | Graphics & Text | Print | Product List | Glossary On
Versions: 1 2 3 4 5 6 7 8 9 10 11 12 13 14 15 16 17 18 19 20 21 22 23 24 25 26 27 28 29 30 31 32 33 34 35 36 37 38 39 40 41 42 43 44 45 46 47 48 49 50
000
ASUS43 KLOT 291406
RWRIL

ILLINOIS REGIONAL WEATHER ROUNDUP
NATIONAL WEATHER SERVICE CHICAGO/ROMEOVILLE IL
900 AM CDT FRI AUG 29 2014

NOTE: "FAIR" INDICATES FEW OR NO CLOUDS BELOW 12,000 FEET WITH NO
SIGNIFICANT WEATHER AND/OR OBSTRUCTIONS TO VISIBILITY.

* THESE STATIONS ARE NOT UNDER NWS QUALITY CONTROL. THEY ALSO MAY NOT
  REPORT WEATHER SUCH AS PRECIPITATION OR FOG.

ILZ001-002-007-009-015-016-024-291500-
NORTHWEST ILLINOIS

CITY           SKY/WX    TMP DP  RH WIND       PRES   REMARKS
MOLINE         SUNNY     75  69  81 S7        29.91F
STERLING*      MOSUNNY   75  70  83 S5        29.94F
SAVANNA*       SUNNY     73  68  84 SE8       29.92F
$$

ILZ003-004-008-010-011-017-018-291500-
NORTH CENTRAL ILLINOIS

CITY           SKY/WX    TMP DP  RH WIND       PRES   REMARKS
ROCKFORD       TSTM      70  68  93 S7        29.97F
FREEPORT*      SUNNY     73  70  92 S7        29.97S
ROCHELLE*      PTSUNNY   73  69  87 SE8       29.96F
DE KALB*       PTSUNNY   71  68  91 S9        29.99S
PERU*          MOSUNNY   73  70  88 S12       29.97S
$$

ILZ005-006-012>014-019>023-291500-
NORTHEAST ILLINOIS

CITY           SKY/WX    TMP DP  RH WIND       PRES   REMARKS
CHICAGO-OHARE  CLOUDY    74  65  73 S8        29.98S
CHICAGO-MIDWAY CLOUDY    75  67  76 S8        29.98F
AURORA         PTSUNNY   74  69  85 S10       29.97F
LANSING*       CLOUDY    71  65  82 SE7       30.01S
JOLIET*        CLOUDY    73  68  86 S9        29.99S
WAUKEGAN       PTSUNNY   73  66  78 S5        29.98S
DUPAGE AIRPORT PTSUNNY   75  69  81 SE9       29.97F
KANKAKEE*      CLOUDY    72  68  88 SE5       30.01S
WHEELING       PTSUNNY   75  67  76 S8        29.99F
MORRIS*        PTSUNNY   74  72  93 S7        29.98S
ROMEOVILLE*    CLOUDY    72  69  91 S10       29.99S
NORTHERLY ISL    N/A     73  65  75 SE10        N/A
$$

LMZ740>746-291500-
SOUTHERN LAKE MICHIGAN

STATION/POSITION SKY/WX   TEMP    WIND        PRES    VSBY  WAVE
                          AIR SEA DIR/SP/G                  HT/PER
                          (F)     (DEG/KT/KT) (MB)    (MI)  (FT/S)
SOUTHERN BUOY              69 69  160/ 19/ 21 1015.3F         4/ 5
WAUKEGAN HARBOR            73     180/ 11/ 12   N/A
HARRISON CRIB              71     170/ 19/ 22   N/A
BURNHAM HARBOR             73     160/  7/ 10   N/A
CALUMET HARBOR             72     170/  7/ 10 1014.5S
MICHIGAN CITY              70     130/ 13/ 17   N/A
MICHIGAN CITY 6N           70 71  150/ 14/ 17   N/A           2/ 2
ST. JOSEPH                 69 70  140/ 14/ 17   N/A           1/ 2
$$

ILZ025>027-034>036-040-047-049-050-058-095>099-291500-
WEST-CENTRAL ILLINOIS

CITY           SKY/WX    TMP DP  RH WIND       PRES   REMARKS
QUINCY         SUNNY     76  69  79 S10       29.94S
GALESBURG*     SUNNY     74  71  90 S9        29.94S
MACOMB*        SUNNY     74  72  91 S12       29.95F FOG
JACKSONVILLE*  PTSUNNY   78  72  82 S10       29.97S HX  81
PITTSFIELD*    SUNNY     78  71  78 S7        29.96F HX  80
$$

ILZ028>032-037-038-041>044-048-051>054-059>061-291500-
CENTRAL ILLINOIS

CITY           SKY/WX    TMP DP  RH WIND       PRES   REMARKS
PONTIAC        PTSUNNY   75  73  94 S7        29.98F
DECATUR        CLOUDY    74  71  91 S6        30.00S
PEORIA         CLOUDY    76  70  82 S9        29.97R
LACON*         MOSUNNY   73  70  88 S7        29.95F
LINCOLN*       TSTM      73  71  94 NW7       29.97S VSB 1/2
SPRINGFIELD    CLOUDY    75  71  87 S5        29.97S
TAYLORVILLE    CLOUDY    72  70  94 S7        29.99S
$$

ILZ033-039-045-046-055>057-062-063-291500-
EAST-CENTRAL ILLINOIS

CITY           SKY/WX    TMP DP  RH WIND       PRES   REMARKS
CHAMPAIGN      CLOUDY    74  71  91 SE8       30.01S
DANVILLE*      PTSUNNY   73  69  87 S8        30.00R
RANTOUL*       CLOUDY    76  70  82 S7        30.01S
MATTOON        CLOUDY    74  71  91 S7        30.00S
PARIS*         CLOUDY    72  70  93 SE5       30.03S
$$

ILZ079-100>102-291500-
SOUTHWEST ILLINOIS

CITY           SKY/WX    TMP DP  RH WIND       PRES   REMARKS
ALTON          MOSUNNY   75  72  88 S8        29.98S
BELLEVILLE     SUNNY     76  76  97 VRB2      29.97S
CAHOKIA*       SUNNY     77  73  87 S3        29.97R
SPARTA*        SUNNY     76  72  89 S5        29.99S
$$

ILZ064>066-069>071-074>076-080>082-084>086-088>090-092>094-291500-
SOUTH-CENTRAL ILLINOIS

CITY           SKY/WX    TMP DP  RH WIND       PRES   REMARKS
CARBONDALE     SUNNY     77  72  84 VRB5      29.98F HAZE
CAIRO*         SUNNY     78  75  92 S6        29.99S HX  80
EFFINGHAM*     RAIN      77  70  80 SE8       30.00S
MARION         MOSUNNY   77  73  88 S8        30.00S
MT. VERNON     SUNNY     79  72  78 S8        30.00S HX  82
CENTRALIA*     SUNNY     77  71  81 S8        29.98F
SALEM*         SUNNY     79  74  86 SE5       29.99S HAZE    HX  82
METROPOLIS*    SUNNY     78  77  95 S3        29.99R HX  81
$$

ILZ067-068-072-073-078-083-087-091-291500-
SOUTHEAST ILLINOIS

CITY           SKY/WX    TMP DP  RH WIND       PRES   REMARKS
LAWRENCEVILLE  MOSUNNY   80  73  79 SE9       30.01S HX  84
FLORA*         SUNNY     77  73  86 S7        30.00F FOG
FAIRFIELD*     SUNNY     79  75  89 SE5       29.99F HX  82
HARRISBURG*    SUNNY     77  75  93 CALM      30.00S FOG
ROBINSON*      MOSUNNY   80  75  84 SE9       30.02S HX  84
CARMI*         MOSUNNY   80  76  89 SE6       30.00S FOG     HX  85
$$

ABBREVIATIONS USED IN REMARKS
   TC - TEMPERATURE IN CELSIUS
  WCI - WIND CHILL INDEX
   HX - HEAT INDEX
  VSB - VISIBILITY
$$



USA.gov is the U.S. government's official web portal to all federal, state and local government web resources and services.